Temp
37 37 38 40 42 40 42 41 42 47 48 48 47 48 49 50 51 51 51 51 52 52 53 54 54 55 56
35 35 35 37 37 37 39 41 40 42 45 46 47 47 49 49 49 50 50 50 50 50 51 52 52 53 54
33 34 33 34 33 35 36 37 40 42 43 45 46 47 48 49 49 49 49 49 49 49 49 50 50 50 51
34 33 33 34 34 34 33 35 35 39 42 44 45 46 46 46 46 46 46 46 46 47 47 48 48 49 50
33 33 33 33 32 34 32 32 34 35 34 33 32 33 34 40 41 43 44 44 45 46 47 48 48 49 49
32 31 31 32 32 31 29 27 24 30 29 29 31 31 32 31 39 42 43 44 45 46 46 47 47 48 48
31 30 29 30 28 24 26 21 23 27 27 26 28 29 30 35 40 42 43 44 45 45 45 46 46 47 47
32 30 30 30 29 26 26 25 27 28 28 20 25 26 29 29 38 41 42 43 44 44 44 44 44 44 45
39 39 40 40 37 27 21 17 20 24 27 25 24 25 26 26 28 39 40 40 40 41 41 41 41 42 39
28 29 31 30 37 30 22 12 12 15 25 20 23 24 18 26 27 28 28 35 38 39 39 39 39 33 29
25 25 26 26 26 26 27 15 8 12 27 25 21 26 26 23 26 27 26 28 28 31 36 38 39 37 27
24 24 22 19 21 22 26 22 22 21 25 25 26 25 23 24 24 27 26 26 26 27 27 32 36 38 39
23 19 18 18 17 18 20 23 21 23 28 29 28 27 26 25 24 26 28 24 26 26 26 25 26 26 25
21 24 24 16 19 23 24 27 17 22 25 24 29 28 26 26 26 24 25 23 22 24 24 28 28 28 27
21 23 27 27 26 22 25 25 20 19 21 22 25 26 27 25 24 26 25 26 29 29 30 29 31 32 32
26 25 24 24 24 25 24 19 20 20 20 20 16 18 21 24 31 26 27 27 29 29 29 27 27 30 32
24 24 24 24 24 22 20 21 20 20 20 21 10 12 17 16 23 35 24 25 25 24 26 26 26 28 30
MSLP
1018.64 1018.23 1018.87 1019.18 1019.22 1019.80 1019.92 1020.77 1020.73 1020.87 1021.27 1020.98 1021.56 1021.95 1021.77 1021.65 1021.53 1021.45 1021.61 1021.54 1021.48 1021.21 1021.28 1021.20 1020.95 1020.89 1020.97
1018.84 1018.70 1018.69 1019.68 1019.63 1019.99 1020.04 1020.60 1020.97 1021.12 1021.27 1020.94 1021.12 1021.33 1021.42 1021.26 1021.26 1021.02 1021.18 1021.13 1021.05 1020.82 1020.88 1020.80 1020.74 1020.61 1020.56
1019.02 1019.40 1019.61 1019.78 1020.27 1020.08 1020.32 1020.87 1020.99 1021.38 1021.09 1020.86 1020.73 1020.79 1020.69 1020.71 1020.75 1020.61 1020.77 1020.66 1020.43 1020.33 1020.44 1020.54 1020.50 1020.57 1020.44
1019.61 1019.82 1019.80 1019.81 1020.20 1020.20 1020.66 1020.86 1020.87 1020.92 1020.68 1020.59 1020.45 1020.37 1020.63 1020.58 1020.56 1020.42 1020.31 1020.29 1020.25 1020.10 1020.16 1020.25 1020.30 1020.25 1019.95
1019.49 1019.80 1019.85 1020.13 1020.31 1020.42 1020.71 1020.92 1021.04 1020.78 1020.80 1020.70 1020.76 1020.75 1020.93 1020.72 1020.31 1020.08 1019.91 1019.89 1019.94 1019.86 1019.61 1019.58 1019.59 1019.45 1019.30
1019.85 1020.06 1020.25 1020.45 1020.65 1020.85 1020.97 1021.18 1021.24 1021.12 1021.18 1020.99 1020.93 1020.64 1020.46 1020.19 1019.81 1019.61 1019.33 1019.27 1019.46 1019.18 1018.98 1018.90 1018.96 1018.86 1018.75
1020.18 1020.28 1020.44 1020.56 1020.76 1020.97 1020.99 1021.32 1021.46 1021.19 1021.45 1020.84 1020.60 1020.17 1019.64 1019.53 1019.11 1018.81 1018.72 1019.05 1019.01 1018.51 1018.44 1018.52 1018.35 1018.18 1018.20
1020.26 1020.40 1020.54 1020.68 1020.73 1020.86 1021.12 1021.40 1021.35 1021.18 1021.19 1020.99 1020.31 1019.90 1019.36 1019.02 1018.67 1018.51 1018.61 1018.56 1018.24 1018.10 1018.10 1018.19 1018.13 1017.93 1017.72
1020.14 1020.12 1020.03 1020.00 1020.12 1020.69 1021.23 1021.81 1021.79 1021.22 1020.82 1020.75 1020.20 1019.89 1019.16 1018.69 1018.42 1018.11 1018.26 1018.40 1018.36 1018.25 1018.11 1017.90 1017.79 1017.67 1017.53
1020.75 1020.70 1020.64 1020.61 1020.26 1020.58 1021.04 1022.02 1022.25 1021.52 1020.69 1020.78 1020.54 1020.40 1019.74 1018.98 1018.74 1018.60 1018.58 1018.44 1018.21 1018.04 1017.86 1017.70 1017.57 1017.54 1017.52
1021.07 1021.01 1020.92 1020.78 1020.62 1020.53 1020.59 1021.22 1021.64 1021.48 1020.55 1020.60 1020.63 1020.56 1020.45 1019.78 1018.95 1018.61 1018.62 1018.45 1018.30 1017.92 1017.62 1017.28 1017.03 1016.89 1016.86
1021.25 1021.29 1021.35 1021.21 1021.04 1020.90 1020.67 1020.82 1020.85 1020.82 1020.44 1020.41 1020.27 1020.21 1020.16 1019.71 1019.02 1018.26 1018.27 1018.09 1017.88 1017.32 1017.06 1016.75 1016.43 1016.12 1015.83
1021.38 1021.47 1021.30 1021.40 1021.20 1021.05 1020.74 1020.49 1020.47 1020.18 1019.89 1019.81 1019.65 1019.61 1019.57 1019.20 1018.51 1017.86 1017.74 1016.90 1016.95 1016.70 1016.39 1016.25 1015.96 1015.72 1015.53
1021.29 1021.11 1021.09 1021.12 1020.98 1020.80 1020.62 1020.27 1020.25 1019.74 1019.39 1019.19 1019.05 1018.96 1018.73 1018.45 1018.22 1017.35 1017.17 1017.12 1015.88 1015.85 1015.62 1015.13 1014.85 1014.63 1014.46
1021.24 1021.11 1020.84 1020.82 1020.67 1020.47 1020.25 1019.96 1019.99 1019.58 1019.20 1018.80 1018.52 1018.30 1018.00 1017.77 1017.25 1016.65 1016.02 1015.59 1015.22 1014.85 1014.66 1014.04 1013.52 1013.18 1012.93
1021.00 1020.88 1020.75 1020.61 1020.33 1020.01 1019.81 1019.81 1019.48 1019.05 1018.68 1018.35 1018.14 1017.93 1017.17 1016.24 1015.80 1015.24 1014.99 1014.58 1014.09 1013.98 1013.80 1013.33 1012.28 1011.81 1011.62
1020.81 1020.67 1020.52 1020.33 1020.09 1019.81 1019.59 1019.32 1018.82 1018.44 1017.98 1017.67 1017.83 1017.65 1016.92 1015.78 1014.65 1014.10 1013.92 1013.75 1013.55 1013.24 1012.90 1012.45 1011.57 1010.55 1010.65
Wind_Speed
2 2 3 4 4 4 5 2 3 13 14 12 13 17 20 18 17 17 17 17 17 16 17 18 17 18 18
0 1 3 0 3 4 5 4 3 9 15 15 18 17 17 16 18 17 17 16 16 16 16 17 17 17 17
1 2 1 2 1 2 3 4 4 11 12 13 15 16 18 15 15 16 17 17 15 14 15 16 17 17 17
1 1 1 2 0 1 2 2 2 5 9 10 9 9 13 14 14 14 12 11 14 15 15 16 16 17 17
2 1 1 1 1 1 0 0 2 2 2 1 1 3 4 11 12 15 15 14 15 15 16 16 16 16 16
1 2 2 1 1 2 2 1 1 1 1 3 3 5 5 4 12 13 13 14 15 14 14 14 15 16 17
1 1 1 1 2 1 1 2 2 2 1 4 3 5 4 6 12 13 12 13 14 13 13 14 14 16 17
1 1 2 3 3 4 3 2 2 3 4 4 1 4 4 4 12 13 12 9 7 8 10 13 15 16 17
5 4 4 5 3 3 0 2 3 3 1 1 2 3 3 3 3 4 2 8 8 9 11 13 15 17 12
5 6 6 5 7 1 3 3 2 3 2 1 3 3 5 2 2 3 3 7 10 12 15 16 15 5 4
4 3 3 4 3 2 3 4 3 3 4 1 1 1 2 4 3 3 2 4 5 9 16 17 15 12 4
2 2 2 2 2 3 3 3 3 5 5 3 3 2 2 6 7 2 4 4 6 8 6 11 16 17 19
2 2 2 3 3 3 3 3 4 5 6 7 7 6 7 7 9 8 12 3 5 8 6 6 7 4 7
2 2 2 1 1 1 2 5 2 4 5 6 8 7 7 7 8 12 8 6 3 5 5 7 7 6 8
1 3 5 5 5 2 4 4 4 5 5 3 6 6 8 10 10 10 11 10 9 10 10 11 11 9 9
4 3 4 4 5 5 3 3 7 7 6 4 3 3 4 8 19 12 10 11 10 9 9 11 12 10 9
3 3 4 4 8 6 5 6 7 7 7 6 2 3 8 10 4 14 8 7 7 7 8 9 13 13 9
Wind_Direction
330 160 134 167 146 127 141 149 202 226 239 231 251 263 265 263 265 271 273 273 273 275 274 273 273 271 273
87 273 96 310 113 129 156 182 201 231 241 245 256 269 267 268 265 265 272 273 272 271 273 273 273 271 271
47 26 45 119 123 123 147 220 229 245 258 258 253 254 256 266 274 271 272 268 270 273 271 271 271 271 271
121 155 155 101 156 133 193 195 237 252 241 244 254 280 279 282 279 275 286 288 281 276 271 268 267 267 268
77 31 53 87 172 95 137 279 245 226 275 306 334 288 276 281 277 271 272 274 270 265 262 262 263 263 265
51 55 68 67 122 185 176 100 310 339 268 276 223 260 250 253 265 265 264 264 262 268 272 275 275 273 270
73 69 37 49 94 64 122 145 222 264 240 274 217 260 252 262 276 275 268 262 263 270 275 274 274 274 270
103 164 190 186 175 171 183 209 279 259 199 255 267 263 268 254 275 270 261 260 278 293 297 292 286 285 283
47 2 328 330 300 118 163 93 293 261 226 250 313 298 294 310 317 216 90 327 306 296 293 293 291 286 286
351 347 344 325 312 213 159 169 194 331 269 114 334 7 328 312 319 306 320 299 297 293 295 290 284 273 265
324 318 320 318 318 327 188 143 154 239 259 167 203 240 253 290 280 272 264 275 268 277 281 278 281 273 252
330 322 329 330 324 333 298 227 219 211 253 235 248 197 222 281 278 265 269 250 250 257 244 261 275 273 275
293 266 222 245 285 308 303 258 247 248 251 236 233 240 233 247 272 282 295 276 256 258 257 244 252 237 271
260 282 283 311 288 229 269 302 277 283 271 254 246 237 256 249 255 275 267 263 258 248 240 261 259 245 248
261 294 307 312 305 272 279 284 265 277 278 251 258 254 251 254 262 259 269 267 265 277 282 281 277 267 258
291 280 286 287 290 279 257 254 278 279 275 261 249 289 268 254 237 258 260 262 269 270 266 271 276 271 256
264 276 277 280 301 288 275 266 273 274 274 275 232 227 282 279 254 253 253 263 268 263 256 254 269 275 272